OneWeb SL0307

operational
NORAD ID: 49189 Int'l Des: 2021-083 Owner: ONEWEBN Country: UK Constellation: oneweb
LEOCIRCULARPOLARONEWEB_TYPE

Über OneWeb SL0307

Beschreibung wird geladen...

Live-Position

3D-Globus wird geladen...

Nächste Überflüge

Höhenverlauf

Altitude vs Time

uPlot chart will show altitude changes over time

Zweizeiliger Elementsatz

1 49189U 21083D 25302.41769954 .00000141 00000-0 35230-3 0 9994
2 49189 87.9023 6.1217 0001820 100.7038 259.4296 13.13469962200631
Epoch: 29. Okt. 2025 • Age: 18 hours

Aktueller Status

Höhe 1231.7 km
Geschwindigkeit 7.24 km/s
Subsatellitenpunkt -53.27°S, 96.11°W
Startdatum 14. Sept. 2021
Alter 4.1 years
Typ internet

Technische Details

Klassifizierung Payload
Masse 148.00 kg
Trockenmasse 140.00 kg
Gesamtmasse 148.00 kg
Länge 1.30 m
Durchmesser 1.00 m
Spannweite 5.00 m
Form Trapezoid+2 pan
Hersteller ONEWUS
Bus-Typ ARROW
Phasenstatus In Orbit
Besitzer/Staat ONEWEBN/UK

Große Konstellationen

Loading constellations...